Time,TemperatureF,DewpointF,PressureIn,WindDirection,WindDirectionDegrees,WindSpeedMPH,WindSpeedGustMPH,Humidity,HourlyPrecipIn,Conditions,Clouds,dailyrainin,SoftwareType,DateUTC
2013-03-31 00:06:00,52.2,50.2,29.87,WSW,237,0.0,0.0,93,0.00,,,0.00,VWS V14.01,2013-03-31 05:06:00,
2013-03-31 00:15:00,52.2,50.2,29.87,WSW,237,0.0,0.0,93,0.00,,,0.00,VWS V14.01,2013-03-31 05:15:00,
2013-03-31 00:21:00,52.2,50.2,29.87,WSW,237,0.0,0.0,93,0.00,,,0.00,VWS V14.01,2013-03-31 05:21:00,
2013-03-31 00:26:00,52.2,50.2,29.87,WSW,237,0.0,0.0,93,0.00,,,0.00,VWS V14.01,2013-03-31 05:26:00,
2013-03-31 00:36:00,52.2,50.2,29.86,WSW,237,0.0,0.0,93,0.00,,,0.00,VWS V14.01,2013-03-31 05:36:00,
2013-03-31 00:41:00,52.2,50.2,29.86,WSW,237,0.0,0.0,93,0.00,,,0.00,VWS V14.01,2013-03-31 05:41:00,
2013-03-31 00:51:00,52.3,50.3,29.86,WSW,237,0.0,0.0,93,0.00,,,0.00,VWS V14.01,2013-03-31 05:51:00,
2013-03-31 00:56:00,52.3,50.3,29.86,WSW,237,0.0,0.0,93,0.00,,,0.00,VWS V14.01,2013-03-31 05:56:00,
2013-03-31 01:01:00,52.2,50.2,29.86,WSW,237,0.0,0.0,93,0.00,,,0.00,VWS V14.01,2013-03-31 06:01:00,
2013-03-31 01:10:00,52.3,50.3,29.86,WSW,237,0.0,0.0,93,0.00,,,0.00,VWS V14.01,2013-03-31 06:10:00,
2013-03-31 01:15:00,52.3,50.3,29.85,WSW,237,0.0,0.0,93,0.00,,,0.00,VWS V14.01,2013-03-31 06:15:00,
2013-03-31 01:21:00,52.3,50.3,29.85,WSW,238,0.0,0.0,93,0.00,,,0.00,VWS V14.01,2013-03-31 06:21:00,
2013-03-31 01:30:00,52.3,50.3,29.84,WSW,238,0.0,0.0,93,0.00,,,0.00,VWS V14.01,2013-03-31 06:30:00,
2013-03-31 01:35:00,52.3,50.6,29.84,WSW,238,0.0,0.0,94,0.00,,-RA,0.00,VWS V14.01,2013-03-31 06:35:00,
2013-03-31 01:40:00,52.2,50.2,29.84,WSW,238,0.0,0.0,93,0.00,,-RA,0.00,VWS V14.01,2013-03-31 06:40:00,
2013-03-31 01:46:00,52.2,50.2,29.84,WSW,238,0.0,0.0,93,0.00,,-RA,0.00,VWS V14.01,2013-03-31 06:46:00,
2013-03-31 01:56:00,52.0,50.3,29.84,WSW,238,0.0,0.0,94,0.00,,,0.00,VWS V14.01,2013-03-31 06:56:00,
2013-03-31 02:05:00,52.0,50.0,29.83,WSW,238,0.0,0.0,93,0.00,,,0.00,VWS V14.01,2013-03-31 07:05:00,
2013-03-31 02:11:00,52.0,50.3,29.83,WSW,238,0.0,0.0,94,0.00,,,0.00,VWS V14.01,2013-03-31 07:11:00,
2013-03-31 02:16:00,52.0,50.3,29.83,WSW,238,0.0,0.0,94,0.00,,,0.00,VWS V14.01,2013-03-31 07:16:00,
2013-03-31 02:25:00,52.2,50.5,29.83,WSW,238,0.0,0.0,94,0.00,,,0.00,VWS V14.01,2013-03-31 07:25:00,
2013-03-31 02:30:00,52.0,50.3,29.82,WSW,238,0.0,0.0,94,0.00,,,0.00,VWS V14.01,2013-03-31 07:30:00,
2013-03-31 02:35:00,52.0,50.3,29.82,WSW,238,0.0,1.0,94,0.00,,,0.00,VWS V14.01,2013-03-31 07:35:00,
2013-03-31 02:41:00,52.0,50.3,29.82,WSW,238,0.0,0.0,94,0.00,,,0.00,VWS V14.01,2013-03-31 07:41:00,
2013-03-31 02:46:00,52.0,50.3,29.83,WSW,238,0.0,0.0,94,0.00,,,0.00,VWS V14.01,2013-03-31 07:46:00,
2013-03-31 02:51:00,52.0,50.3,29.83,WSW,238,0.0,0.0,94,0.00,,,0.00,VWS V14.01,2013-03-31 07:51:00,
2013-03-31 02:56:00,52.0,50.3,29.83,WSW,238,0.0,0.0,94,0.00,,,0.00,VWS V14.01,2013-03-31 07:56:00,
2013-03-31 03:01:00,52.0,50.3,29.83,WSW,238,0.0,0.0,94,0.00,,,0.00,VWS V14.01,2013-03-31 08:01:00,
2013-03-31 03:11:00,52.2,50.5,29.83,WSW,238,0.0,0.0,94,0.00,,,0.00,VWS V14.01,2013-03-31 08:11:00,
2013-03-31 03:21:00,52.3,50.6,29.82,WSW,238,0.0,0.0,94,0.00,,,0.00,VWS V14.01,2013-03-31 08:21:00,
2013-03-31 03:26:00,52.3,50.6,29.82,WSW,238,0.0,0.0,94,0.00,,,0.00,VWS V14.01,2013-03-31 08:26:00,
2013-03-31 03:31:00,52.3,50.6,29.81,WSW,238,0.0,0.0,94,0.00,,,0.00,VWS V14.01,2013-03-31 08:31:00,
2013-03-31 03:40:00,52.3,50.6,29.81,WSW,238,0.0,0.0,94,0.00,,,0.00,VWS V14.01,2013-03-31 08:40:00,
2013-03-31 03:46:00,52.3,50.6,29.81,WSW,238,0.0,0.0,94,0.00,,,0.00,VWS V14.01,2013-03-31 08:46:00,
2013-03-31 03:56:00,52.5,50.8,29.81,WSW,238,0.0,0.0,94,0.00,,,0.00,VWS V14.01,2013-03-31 08:56:00,
2013-03-31 04:05:00,52.5,50.8,29.81,WSW,238,0.0,0.0,94,0.00,,,0.00,VWS V14.01,2013-03-31 09:05:00,
2013-03-31 04:10:00,52.5,50.8,29.81,WSW,238,0.0,0.0,94,0.00,,,0.00,VWS V14.01,2013-03-31 09:10:00,
2013-03-31 04:15:00,52.5,50.8,29.81,WSW,238,0.0,0.0,94,0.00,,,0.00,VWS V14.01,2013-03-31 09:15:00,
2013-03-31 04:20:00,52.8,51.1,29.81,WSW,238,0.0,0.0,94,0.00,,,0.00,VWS V14.01,2013-03-31 09:20:00,
2013-03-31 04:25:00,52.9,51.2,29.81,WSW,238,0.0,0.0,94,0.00,,,0.00,VWS V14.01,2013-03-31 09:25:00,
2013-03-31 04:30:00,52.9,51.2,29.80,WSW,238,0.0,0.0,94,0.00,,,0.00,VWS V14.01,2013-03-31 09:30:00,
2013-03-31 04:35:00,52.9,51.2,29.80,WSW,238,0.0,0.0,94,0.00,,,0.00,VWS V14.01,2013-03-31 09:35:00,
2013-03-31 04:40:00,52.9,51.2,29.80,WSW,238,0.0,0.0,94,0.00,,,0.00,VWS V14.01,2013-03-31 09:40:00,
2013-03-31 04:45:00,52.9,51.2,29.80,WSW,238,0.0,0.0,94,0.00,,,0.00,VWS V14.01,2013-03-31 09:45:00,
2013-03-31 04:51:00,52.9,51.2,29.80,WSW,238,0.0,0.0,94,0.00,,,0.00,VWS V14.01,2013-03-31 09:51:00,
2013-03-31 05:00:00,52.8,51.1,29.79,WSW,238,0.0,0.0,94,0.00,,,0.00,VWS V14.01,2013-03-31 10:00:00,
2013-03-31 05:06:00,52.8,51.1,29.79,WSW,238,0.0,0.0,94,0.00,,,0.00,VWS V14.01,2013-03-31 10:06:00,
2013-03-31 05:15:00,52.5,50.8,29.80,WSW,238,0.0,0.0,94,0.00,,,0.00,VWS V14.01,2013-03-31 10:15:00,
2013-03-31 05:20:00,52.3,50.6,29.80,WSW,238,0.0,0.0,94,0.00,,,0.00,VWS V14.01,2013-03-31 10:20:00,
2013-03-31 05:25:00,52.5,50.8,29.80,WSW,238,0.0,0.0,94,0.00,,,0.00,VWS V14.01,2013-03-31 10:25:00,
2013-03-31 05:30:00,52.5,50.8,29.80,WSW,238,0.0,0.0,94,0.00,,,0.00,VWS V14.01,2013-03-31 10:30:00,
2013-03-31 05:35:00,52.5,50.8,29.80,WSW,238,0.0,0.0,94,0.00,,,0.00,VWS V14.01,2013-03-31 10:35:00,
2013-03-31 05:40:00,52.5,50.8,29.80,WSW,238,0.0,0.0,94,0.00,,,0.00,VWS V14.01,2013-03-31 10:40:00,
2013-03-31 05:45:00,52.3,50.6,29.81,WSW,238,0.0,0.0,94,0.00,,,0.00,VWS V14.01,2013-03-31 10:45:00,
2013-03-31 05:51:00,52.3,50.6,29.81,WSW,238,0.0,0.0,94,0.00,,,0.00,VWS V14.01,2013-03-31 10:51:00,
2013-03-31 06:00:00,52.3,50.6,29.81,WSW,238,0.0,0.0,94,0.00,,,0.00,VWS V14.01,2013-03-31 11:00:00,
2013-03-31 06:06:00,52.3,50.6,29.81,WSW,238,0.0,0.0,94,0.00,,,0.00,VWS V14.01,2013-03-31 11:06:00,
2013-03-31 06:16:00,52.3,50.6,29.81,WSW,238,0.0,0.0,94,0.00,,,0.00,VWS V14.01,2013-03-31 11:16:00,
2013-03-31 06:26:00,52.3,50.6,29.81,WSW,238,0.0,0.0,94,0.00,,,0.00,VWS V14.01,2013-03-31 11:26:00,
2013-03-31 06:36:00,52.5,50.8,29.82,WSW,238,0.0,0.0,94,0.00,,,0.00,VWS V14.01,2013-03-31 11:36:00,
2013-03-31 06:45:00,52.6,50.9,29.83,WSW,238,0.0,0.0,94,0.00,,,0.00,VWS V14.01,2013-03-31 11:45:00,
2013-03-31 06:51:00,52.6,50.9,29.83,WSW,238,0.0,0.0,94,0.00,,,0.00,VWS V14.01,2013-03-31 11:51:00,
2013-03-31 07:00:00,52.6,50.9,29.84,WSW,238,0.0,0.0,94,0.00,,,0.00,VWS V14.01,2013-03-31 12:00:00,
2013-03-31 07:06:00,52.6,50.9,29.84,WSW,238,0.0,0.0,94,0.00,,,0.00,VWS V14.01,2013-03-31 12:06:00,
2013-03-31 07:16:00,52.6,50.9,29.85,WSW,238,0.0,0.0,94,0.00,,,0.00,VWS V14.01,2013-03-31 12:16:00,
2013-03-31 07:26:00,52.6,50.9,29.85,WSW,238,0.0,0.0,94,0.00,,,0.00,VWS V14.01,2013-03-31 12:26:00,
2013-03-31 07:35:00,52.8,51.1,29.85,WSW,238,0.0,0.0,94,0.00,,OVC005,0.00,VWS V14.01,2013-03-31 12:35:00,
2013-03-31 07:41:00,52.9,51.2,29.85,WSW,238,0.0,0.0,94,0.00,,OVC005,0.00,VWS V14.01,2013-03-31 12:41:00,
2013-03-31 07:51:00,52.8,51.1,29.85,NNW,344,3.0,6.0,94,0.00,,OVC005,0.00,VWS V14.01,2013-03-31 12:51:00,
2013-03-31 07:56:00,52.8,51.1,29.85,NNW,344,3.0,4.0,94,0.00,,OVC005,0.00,VWS V14.01,2013-03-31 12:56:00,
2013-03-31 08:01:00,52.6,50.9,29.85,NNW,344,2.0,3.0,94,0.00,,OVC005,0.00,VWS V14.01,2013-03-31 13:01:00,
2013-03-31 08:06:00,52.6,50.9,29.85,NNW,340,2.0,4.0,94,0.00,,OVC005,0.00,VWS V14.01,2013-03-31 13:06:00,
2013-03-31 08:15:00,52.5,50.8,29.87,NNW,338,4.0,6.0,94,0.00,,OVC005,0.00,VWS V14.01,2013-03-31 13:15:00,
2013-03-31 08:21:00,52.2,50.5,29.87,NNW,338,5.0,7.0,94,0.00,,OVC005,0.00,VWS V14.01,2013-03-31 13:21:00,
2013-03-31 08:26:00,52.0,50.3,29.87,NNW,334,2.0,8.0,94,0.00,,OVC005,0.00,VWS V14.01,2013-03-31 13:26:00,
2013-03-31 08:36:00,52.0,50.3,29.87,NNW,334,5.0,9.0,94,0.00,,OVC007,0.00,VWS V14.01,2013-03-31 13:36:00,
2013-03-31 08:45:00,52.0,50.3,29.86,NNW,346,4.0,7.0,94,0.00,,OVC007,0.00,VWS V14.01,2013-03-31 13:45:00,
2013-03-31 08:50:00,51.9,50.2,29.86,North,349,6.0,10.0,94,0.00,,OVC027,0.00,VWS V14.01,2013-03-31 13:50:00,
2013-03-31 08:56:00,52.0,50.3,29.86,North,355,3.0,7.0,94,0.00,,OVC027,0.00,VWS V14.01,2013-03-31 13:56:00,
2013-03-31 09:06:00,52.0,50.0,29.86,NNW,346,3.0,7.0,93,0.00,,OVC027,0.00,VWS V14.01,2013-03-31 14:06:00,
2013-03-31 09:16:00,51.7,49.8,29.88,NNW,333,3.0,6.0,93,0.03,,OVC027,0.03,VWS V14.01,2013-03-31 14:16:00,
2013-03-31 09:21:00,51.6,49.7,29.88,NNW,329,0.0,5.0,93,0.03,,OVC027,0.03,VWS V14.01,2013-03-31 14:21:00,
2013-03-31 09:26:00,51.7,49.8,29.88,NNW,329,1.0,2.0,93,0.03,,OVC027,0.03,VWS V14.01,2013-03-31 14:26:00,
2013-03-31 09:31:00,51.7,49.8,29.89,NNW,329,2.0,3.0,93,0.04,,OVC027,0.04,VWS V14.01,2013-03-31 14:31:00,
2013-03-31 09:36:00,51.9,49.9,29.89,NNW,335,3.0,8.0,93,0.04,,OVC027,0.04,VWS V14.01,2013-03-31 14:36:00,
2013-03-31 09:46:00,51.9,49.9,29.90,WNW,292,0.0,6.0,93,0.05,,OVC027,0.05,VWS V14.01,2013-03-31 14:46:00,
2013-03-31 09:55:00,52.0,50.0,29.90,NNW,329,2.0,3.0,93,0.06,,OVC070,0.06,VWS V14.01,2013-03-31 14:55:00,
2013-03-31 10:01:00,51.9,49.9,29.88,NNW,329,0.0,2.0,93,0.07,,OVC070,0.07,VWS V14.01,2013-03-31 15:01:00,
2013-03-31 10:11:00,51.9,49.9,29.88,NNW,329,2.0,3.0,93,0.08,,OVC070,0.08,VWS V14.01,2013-03-31 15:11:00,
2013-03-31 10:20:00,52.0,50.0,29.90,NNW,327,5.0,5.0,93,0.05,,OVC070,0.08,VWS V14.01,2013-03-31 15:20:00,
2013-03-31 10:25:00,51.9,49.9,29.90,NW,321,5.0,6.0,93,0.05,,OVC070,0.08,VWS V14.01,2013-03-31 15:25:00,
2013-03-31 10:31:00,52.0,50.0,29.92,NW,323,2.0,5.0,93,0.06,,OVC070,0.09,VWS V14.01,2013-03-31 15:31:00,
2013-03-31 10:36:00,52.0,50.0,29.92,NW,321,1.0,6.0,93,0.06,,OVC070,0.10,VWS V14.01,2013-03-31 15:36:00,
2013-03-31 10:46:00,52.2,50.2,29.91,NW,321,0.0,2.0,93,0.07,,OVC070,0.11,VWS V14.01,2013-03-31 15:46:00,
2013-03-31 10:55:00,52.3,50.3,29.91,NNW,327,1.0,5.0,93,0.05,,OVC070,0.11,VWS V14.01,2013-03-31 15:55:00,
2013-03-31 11:00:00,52.3,50.3,29.90,NNW,327,0.0,1.0,93,0.05,,OVC070,0.11,VWS V14.01,2013-03-31 16:00:00,
2013-03-31 11:05:00,52.5,50.5,29.90,NNW,327,0.0,3.0,93,0.04,,OVC070,0.11,VWS V14.01,2013-03-31 16:05:00,
2013-03-31 11:11:00,52.6,50.6,29.90,NNW,327,0.0,4.0,93,0.03,,OVC070,0.11,VWS V14.01,2013-03-31 16:11:00,
2013-03-31 11:21:00,52.9,50.9,29.90,East,84,1.0,3.0,93,0.03,,OVC070,0.11,VWS V14.01,2013-03-31 16:21:00,
2013-03-31 11:31:00,53.2,51.2,29.87,East,86,0.0,3.0,93,0.03,,OVC070,0.11,VWS V14.01,2013-03-31 16:31:00,
2013-03-31 11:40:00,53.8,51.8,29.87,East,96,2.0,7.0,93,0.01,,,0.11,VWS V14.01,2013-03-31 16:40:00,
2013-03-31 11:46:00,54.1,51.8,29.84,NE,53,2.0,8.0,92,0.00,,,0.11,VWS V14.01,2013-03-31 16:46:00,
2013-03-31 11:56:00,54.2,51.6,29.84,ENE,69,3.0,8.0,91,0.00,,BKN007,0.11,VWS V14.01,2013-03-31 16:56:00,
2013-03-31 12:01:00,54.4,51.5,29.84,East,96,5.0,9.0,90,0.00,,BKN007,0.11,VWS V14.01,2013-03-31 17:01:00,
2013-03-31 12:10:00,55.0,51.8,29.84,ESE,106,4.0,7.0,89,0.00,,BKN007,0.11,VWS V14.01,2013-03-31 17:10:00,
2013-03-31 12:16:00,55.4,51.9,29.85,ESE,111,4.0,8.0,88,0.00,,BKN007,0.11,VWS V14.01,2013-03-31 17:16:00,
2013-03-31 12:21:00,55.3,51.2,29.85,ESE,117,7.0,9.0,86,0.00,,BKN007,0.11,VWS V14.01,2013-03-31 17:21:00,
2013-03-31 12:31:00,55.9,51.5,29.85,East,93,5.0,7.0,85,0.00,,BKN007,0.11,VWS V14.01,2013-03-31 17:31:00,
2013-03-31 12:40:00,56.7,51.6,29.85,ENE,75,2.0,5.0,83,0.00,,BKN015,0.11,VWS V14.01,2013-03-31 17:40:00,
2013-03-31 12:46:00,57.0,51.6,29.84,ENE,78,3.0,7.0,82,0.00,,BKN015,0.11,VWS V14.01,2013-03-31 17:46:00,
2013-03-31 12:51:00,57.3,51.5,29.84,East,90,3.0,6.0,81,0.00,,SCT015,0.11,VWS V14.01,2013-03-31 17:51:00,
2013-03-31 13:01:00,58.3,52.2,29.85,East,83,3.0,7.0,80,0.00,,SCT015,0.11,VWS V14.01,2013-03-31 18:01:00,
2013-03-31 13:11:00,58.4,51.6,29.85,East,101,1.0,5.0,78,0.00,,SCT015,0.11,VWS V14.01,2013-03-31 18:11:00,
2013-03-31 13:16:00,58.9,51.7,29.85,East,101,0.0,3.0,77,0.00,,SCT015,0.11,VWS V14.01,2013-03-31 18:16:00,
2013-03-31 13:21:00,59.3,51.4,29.85,East,100,1.0,3.0,75,0.00,,SCT015,0.11,VWS V14.01,2013-03-31 18:21:00,
2013-03-31 13:30:00,59.6,51.3,29.85,NE,55,0.0,1.0,74,0.00,,SCT015,0.11,VWS V14.01,2013-03-31 18:30:00,
2013-03-31 13:36:00,59.6,51.0,29.85,NE,55,0.0,1.0,73,0.00,,FEW015,0.11,VWS V14.01,2013-03-31 18:36:00,
2013-03-31 13:46:00,60.1,50.7,29.85,NE,53,0.0,2.0,71,0.00,,FEW015,0.11,VWS V14.01,2013-03-31 18:46:00,
2013-03-31 13:51:00,60.2,50.8,29.85,North,9,0.0,4.0,71,0.00,,FEW015,0.11,VWS V14.01,2013-03-31 18:51:00,
2013-03-31 13:56:00,60.2,51.2,29.85,North,9,1.0,3.0,72,0.00,,FEW015,0.11,VWS V14.01,2013-03-31 18:56:00,
2013-03-31 14:01:00,60.4,51.0,29.85,NW,319,1.0,4.0,71,0.00,,FEW015,0.11,VWS V14.01,2013-03-31 19:01:00,
2013-03-31 14:11:00,60.4,50.6,29.85,NW,304,2.0,4.0,70,0.00,,FEW015,0.11,VWS V14.01,2013-03-31 19:11:00,
2013-03-31 14:16:00,60.1,50.7,29.84,NW,304,0.0,2.0,71,0.00,,FEW015,0.11,VWS V14.01,2013-03-31 19:16:00,
2013-03-31 14:21:00,60.2,50.8,29.84,NW,304,0.0,2.0,71,0.00,,FEW015,0.11,VWS V14.01,2013-03-31 19:21:00,
2013-03-31 14:26:00,60.5,51.4,29.84,WNW,302,2.0,3.0,72,0.00,,FEW015,0.11,VWS V14.01,2013-03-31 19:26:00,
2013-03-31 14:36:00,60.2,49.6,29.84,NW,315,2.0,5.0,68,0.00,,CLR,0.11,VWS V14.01,2013-03-31 19:36:00,
2013-03-31 14:41:00,60.1,49.5,29.84,NW,314,1.0,3.0,68,0.00,,CLR,0.11,VWS V14.01,2013-03-31 19:41:00,
2013-03-31 14:51:00,60.5,49.1,29.85,NNW,327,0.0,0.0,66,0.00,,CLR,0.11,VWS V14.01,2013-03-31 19:51:00,
2013-03-31 15:01:00,60.9,49.9,29.85,NW,308,2.0,4.0,67,0.00,,CLR,0.11,VWS V14.01,2013-03-31 20:01:00,
2013-03-31 15:11:00,61.0,49.6,29.85,NW,308,1.0,3.0,66,0.00,,CLR,0.11,VWS V14.01,2013-03-31 20:11:00,
2013-03-31 15:16:00,60.9,50.3,29.85,WNW,284,2.0,5.0,68,0.00,,CLR,0.11,VWS V14.01,2013-03-31 20:16:00,
2013-03-31 15:25:00,61.2,50.6,29.85,WNW,284,1.0,3.0,68,0.00,,CLR,0.11,VWS V14.01,2013-03-31 20:25:00,
2013-03-31 15:31:00,61.0,49.6,29.85,West,277,0.0,5.0,66,0.00,,CLR,0.11,VWS V14.01,2013-03-31 20:31:00,
2013-03-31 15:41:00,61.5,50.0,29.85,West,277,3.0,6.0,66,0.00,,CLR,0.11,VWS V14.01,2013-03-31 20:41:00,
2013-03-31 15:46:00,61.3,49.0,29.84,West,279,3.0,6.0,64,0.00,,CLR,0.11,VWS V14.01,2013-03-31 20:46:00,
2013-03-31 15:51:00,61.3,49.9,29.84,West,269,3.0,6.0,66,0.00,,CLR,0.11,VWS V14.01,2013-03-31 20:51:00,
2013-03-31 16:01:00,61.5,49.6,29.84,West,278,4.0,6.0,65,0.00,,CLR,0.11,VWS V14.01,2013-03-31 21:01:00,
2013-03-31 16:11:00,61.8,49.1,29.84,West,266,1.0,5.0,63,0.00,,CLR,0.11,VWS V14.01,2013-03-31 21:11:00,
2013-03-31 16:25:00,62.4,49.7,29.83,SW,230,0.0,4.0,63,0.00,,CLR,0.11,VWS V14.01,2013-03-31 21:25:00,
2013-03-31 16:31:00,62.4,49.2,29.82,NW,309,1.0,4.0,62,0.00,,CLR,0.11,VWS V14.01,2013-03-31 21:31:00,
2013-03-31 16:36:00,62.7,49.9,29.82,West,267,3.0,5.0,63,0.00,,CLR,0.11,VWS V14.01,2013-03-31 21:36:00,
2013-03-31 16:46:00,62.9,46.5,29.82,WNW,295,4.0,4.0,55,0.00,,CLR,0.11,VWS V14.01,2013-03-31 21:46:00,
2013-03-31 16:51:00,63.5,47.5,29.82,NW,317,0.0,5.0,56,0.00,,CLR,0.11,VWS V14.01,2013-03-31 21:51:00,
2013-03-31 17:00:00,63.5,48.9,29.82,WNW,286,0.0,6.0,59,0.00,,CLR,0.11,VWS V14.01,2013-03-31 22:00:00,
2013-03-31 17:06:00,63.4,47.9,29.82,WNW,294,0.0,5.0,57,0.00,,CLR,0.11,VWS V14.01,2013-03-31 22:06:00,
2013-03-31 17:16:00,64.0,48.9,29.82,WSW,256,0.0,4.0,58,0.00,,CLR,0.11,VWS V14.01,2013-03-31 22:16:00,
2013-03-31 17:26:00,64.3,49.2,29.82,SW,225,3.0,5.0,58,0.00,,CLR,0.11,VWS V14.01,2013-03-31 22:26:00,
2013-03-31 17:35:00,64.0,47.0,29.82,SSW,211,1.0,4.0,54,0.00,,CLR,0.11,VWS V14.01,2013-03-31 22:35:00,
2013-03-31 17:41:00,63.9,47.9,29.82,South,179,2.0,5.0,56,0.00,,CLR,0.11,VWS V14.01,2013-03-31 22:41:00,
2013-03-31 17:51:00,63.7,48.2,29.81,South,175,2.0,4.0,57,0.00,,CLR,0.11,VWS V14.01,2013-03-31 22:51:00,
2013-03-31 18:00:00,63.5,46.6,29.81,SSE,167,4.0,6.0,54,0.00,,CLR,0.11,VWS V14.01,2013-03-31 23:00:00,
2013-03-31 18:05:00,63.4,46.5,29.81,SSE,165,3.0,4.0,54,0.00,,CLR,0.11,VWS V14.01,2013-03-31 23:05:00,
2013-03-31 18:10:00,63.2,46.8,29.81,SSE,165,2.0,4.0,55,0.00,,CLR,0.11,VWS V14.01,2013-03-31 23:10:00,
2013-03-31 18:16:00,63.2,49.1,29.81,South,173,3.0,5.0,60,0.00,,CLR,0.11,VWS V14.01,2013-03-31 23:16:00,
2013-03-31 18:21:00,63.1,49.0,29.81,South,178,0.0,4.0,60,0.00,,CLR,0.11,VWS V14.01,2013-03-31 23:21:00,
2013-03-31 18:30:00,62.6,49.4,29.81,South,177,4.0,4.0,62,0.00,,CLR,0.11,VWS V14.01,2013-03-31 23:30:00,
2013-03-31 18:36:00,62.3,49.6,29.81,South,176,3.0,6.0,63,0.00,,CLR,0.11,VWS V14.01,2013-03-31 23:36:00,
2013-03-31 18:41:00,62.0,49.7,29.81,South,175,1.0,5.0,64,0.00,,CLR,0.11,VWS V14.01,2013-03-31 23:41:00,
2013-03-31 18:51:00,61.3,49.5,29.81,South,175,2.0,4.0,65,0.00,,CLR,0.11,VWS V14.01,2013-03-31 23:51:00,
2013-03-31 18:56:00,61.2,49.3,29.81,South,175,2.0,4.0,65,0.00,,CLR,0.11,VWS V14.01,2013-03-31 23:56:00,
2013-03-31 19:06:00,60.4,49.8,29.81,South,169,2.0,5.0,68,0.00,,CLR,0.11,VWS V14.01,2013-04-01 00:06:00,
2013-03-31 19:11:00,59.9,49.7,29.81,South,169,2.0,4.0,69,0.00,,CLR,0.11,VWS V14.01,2013-04-01 00:11:00,
2013-03-31 19:16:00,59.6,49.4,29.81,South,171,2.0,5.0,69,0.00,,CLR,0.11,VWS V14.01,2013-04-01 00:16:00,
2013-03-31 19:25:00,59.0,49.6,29.81,South,172,1.0,3.0,71,0.00,,CLR,0.11,VWS V14.01,2013-04-01 00:25:00,
2013-03-31 19:31:00,58.7,49.7,29.81,South,172,0.0,3.0,72,0.00,,CLR,0.11,VWS V14.01,2013-04-01 00:31:00,
2013-03-31 19:41:00,58.1,49.5,29.81,South,172,0.0,3.0,73,0.00,,CLR,0.11,VWS V14.01,2013-04-01 00:41:00,
2013-03-31 19:46:00,57.6,49.0,29.82,South,172,0.0,2.0,73,0.00,,CLR,0.11,VWS V14.01,2013-04-01 00:46:00,
2013-03-31 19:51:00,57.3,48.7,29.82,South,172,0.0,1.0,73,0.00,,CLR,0.11,VWS V14.01,2013-04-01 00:51:00,
2013-03-31 19:56:00,56.9,48.7,29.82,South,172,0.0,1.0,74,0.00,,CLR,0.11,VWS V14.01,2013-04-01 00:56:00,
2013-03-31 20:06:00,56.5,49.0,29.82,South,172,0.0,1.0,76,0.00,,CLR,0.11,VWS V14.01,2013-04-01 01:06:00,
2013-03-31 20:11:00,56.3,48.8,29.82,South,172,0.0,0.0,76,0.00,,CLR,0.11,VWS V14.01,2013-04-01 01:11:00,
2013-03-31 20:16:00,56.2,49.1,29.82,South,172,0.0,2.0,77,0.00,,CLR,0.11,VWS V14.01,2013-04-01 01:16:00,
2013-03-31 20:25:00,55.6,48.9,29.82,South,172,0.0,2.0,78,0.00,,CLR,0.11,VWS V14.01,2013-04-01 01:25:00,
2013-03-31 20:31:00,55.4,48.7,29.83,South,172,2.0,4.0,78,0.00,,CLR,0.11,VWS V14.01,2013-04-01 01:31:00,
2013-03-31 20:36:00,55.4,48.7,29.83,South,172,0.0,3.0,78,0.00,,CLR,0.11,VWS V14.01,2013-04-01 01:36:00,
2013-03-31 20:46:00,55.4,48.7,29.84,South,172,1.0,2.0,78,0.00,,CLR,0.11,VWS V14.01,2013-04-01 01:46:00,
2013-03-31 20:51:00,55.3,48.9,29.84,South,172,1.0,2.0,79,0.00,,CLR,0.11,VWS V14.01,2013-04-01 01:51:00,
2013-03-31 20:56:00,55.1,48.4,29.84,South,172,0.0,2.0,78,0.00,,CLR,0.11,VWS V14.01,2013-04-01 01:56:00,
2013-03-31 21:01:00,54.8,48.4,29.84,South,172,0.0,2.0,79,0.00,,CLR,0.11,VWS V14.01,2013-04-01 02:01:00,
2013-03-31 21:06:00,54.8,48.4,29.84,South,172,2.0,2.0,79,0.00,,CLR,0.11,VWS V14.01,2013-04-01 02:06:00,
2013-03-31 21:11:00,54.7,48.3,29.84,South,172,0.0,2.0,79,0.00,,CLR,0.11,VWS V14.01,2013-04-01 02:11:00,
2013-03-31 21:20:00,54.5,48.1,29.84,South,172,0.0,3.0,79,0.00,,CLR,0.11,VWS V14.01,2013-04-01 02:20:00,
2013-03-31 21:25:00,54.5,48.1,29.84,South,172,2.0,3.0,79,0.00,,CLR,0.11,VWS V14.01,2013-04-01 02:25:00,
2013-03-31 21:31:00,54.7,48.3,29.85,South,172,1.0,3.0,79,0.00,,CLR,0.11,VWS V14.01,2013-04-01 02:31:00,
2013-03-31 21:36:00,54.7,48.3,29.85,South,172,2.0,3.0,79,0.00,,CLR,0.11,VWS V14.01,2013-04-01 02:36:00,
2013-03-31 21:41:00,54.7,48.0,29.85,South,172,0.0,3.0,78,0.00,,CLR,0.11,VWS V14.01,2013-04-01 02:41:00,
2013-03-31 21:51:00,54.5,47.8,29.85,South,172,0.0,2.0,78,0.00,,CLR,0.11,VWS V14.01,2013-04-01 02:51:00,
2013-03-31 22:01:00,54.2,47.8,29.85,South,172,0.0,2.0,79,0.00,,CLR,0.11,VWS V14.01,2013-04-01 03:01:00,
2013-03-31 22:11:00,54.1,47.7,29.85,South,172,0.0,2.0,79,0.00,,CLR,0.11,VWS V14.01,2013-04-01 03:11:00,
2013-03-31 22:16:00,53.8,47.8,29.85,South,172,0.0,2.0,80,0.00,,CLR,0.11,VWS V14.01,2013-04-01 03:16:00,
2013-03-31 22:21:00,53.3,47.0,29.85,South,172,0.0,1.0,79,0.00,,CLR,0.11,VWS V14.01,2013-04-01 03:21:00,
2013-03-31 22:31:00,51.7,46.1,29.85,South,172,0.0,3.0,81,0.00,,CLR,0.11,VWS V14.01,2013-04-01 03:31:00,
2013-03-31 22:36:00,51.3,46.3,29.85,South,172,0.0,1.0,83,0.00,,CLR,0.11,VWS V14.01,2013-04-01 03:36:00,
2013-03-31 22:46:00,51.3,47.0,29.85,South,172,0.0,2.0,85,0.00,,CLR,0.11,VWS V14.01,2013-04-01 03:46:00,
2013-03-31 22:51:00,51.3,47.0,29.85,South,172,0.0,0.0,85,0.00,,CLR,0.11,VWS V14.01,2013-04-01 03:51:00,
2013-03-31 23:01:00,50.7,46.4,29.85,South,172,0.0,1.0,85,0.00,,CLR,0.11,VWS V14.01,2013-04-01 04:01:00,
2013-03-31 23:05:00,50.1,45.8,29.85,South,172,0.0,0.0,85,0.00,,CLR,0.11,VWS V14.01,2013-04-01 04:05:00,
2013-03-31 23:11:00,49.8,45.8,29.85,South,172,0.0,0.0,86,0.00,,CLR,0.11,VWS V14.01,2013-04-01 04:11:00,
2013-03-31 23:21:00,49.6,45.6,29.85,South,172,0.0,0.0,86,0.00,,CLR,0.11,VWS V14.01,2013-04-01 04:21:00,
2013-03-31 23:30:00,49.8,45.8,29.85,South,173,3.0,4.0,86,0.00,,CLR,0.11,VWS V14.01,2013-04-01 04:30:00,
2013-03-31 23:36:00,49.5,45.5,29.85,South,176,1.0,4.0,86,0.00,,CLR,0.11,VWS V14.01,2013-04-01 04:36:00,
2013-03-31 23:41:00,49.5,45.5,29.85,South,187,0.0,3.0,86,0.00,,CLR,0.11,VWS V14.01,2013-04-01 04:41:00,
2013-03-31 23:50:00,49.2,45.2,29.85,South,186,0.0,0.0,86,0.00,,CLR,0.11,VWS V14.01,2013-04-01 04:50:00,
2013-03-31 23:56:00,49.1,45.4,29.85,South,187,0.0,0.0,87,0.00,,CLR,0.11,VWS V14.01,2013-04-01 04:56:00,